STARLINK-1404 (45686 NORAD) Tracking and Keplerian Element Data

This shows tracking and keplerian element data for the satellite.

Feedback or suggestion? Click here.




ElementValue
Catalog45686
NameSTARLINK-1404
Epoch Orbit1032
Epoch Day216.25001157
Epoch Year2020
RAAN235.6931
Inclination52.9947
Eccentricity0.000143
Argument of Perigee74.6768
Mean Anonmoly76.3519
Mean Motion15.34757612
Decay Rate-0.01043534
L11 45686U 20035AF 20216.25001157 -.01043534 00000-0 -33198-1 0 9998
L22 45686 52.9947 235.6931 0001430 74.6768 76.3519 15.34757612 10320

Live tracking and technical data element details for STARLINK-1404 (NORAD 45686). STARLINK-1404 can be tracked NOW for your location showing map with azimuth and elevation plus other details from your city location.

Track the satellite on the map from your city or location and see movement details for azimuth, elevation, latitude, longitude, range, height, and movement on the map or in text.







IsCatalogInMostPopularTable: catalog: 45686, numindb: 8
Update: records affected: 1



GetName: 45686 STARLINK-1404

Hit Count: updated at: Mon, 03 Aug 2020 17:26:44 GMT